Location: Saratoga Springs
(43.0831°N, 73.7850°W)
Time: 11:51:02
(UTC-04:00)

Transit 4A - Pass Details

Date: 25 April 2024
Orbit: 871 x 971 km, 66.8° (Epoch: 20 May)

Event Time Altitude Azimuth Distance (km) Brightness Sun altitude
Rises 22:28:30 0° 317° (NW) 3,468 12.3 -24.3°
Reaches altitude 10° 22:31:24 10° 304° (NW) 2,530 11.1 -24.7°
Maximum altitude 22:35:58 24° 253° (WSW) 1,735 9.5 -25.2°
Enters shadow 22:38:27 18° 218° (SW) 2,010 9.5 -25.5°
